Time,TemperatureF,DewpointF,PressureIn,WindDirection,WindDirectionDegrees,WindSpeedMPH,WindSpeedGustMPH,Humidity,HourlyPrecipIn,Conditions,Clouds,dailyrainin,SoftwareType,DateUTC
2013-05-17 00:03:00,64.0,60.0,-100.00,SE,140,4.0,8.0,86,0.00,,,-99.99,,2013-05-17 05:03:00,
2013-05-17 00:14:00,64.0,60.0,-100.00,SSE,160,4.0,7.0,86,0.00,,,-99.99,,2013-05-17 05:14:00,
2013-05-17 00:22:00,64.0,60.0,-100.00,South,170,4.0,9.0,87,0.00,,,-99.99,,2013-05-17 05:22:00,
2013-05-17 00:32:00,63.0,60.0,-100.00,SSE,160,4.0,6.0,88,0.00,,,-99.99,,2013-05-17 05:32:00,
2013-05-17 00:42:00,63.0,60.0,-100.00,SSE,160,4.0,6.0,88,0.00,,,-99.99,,2013-05-17 05:42:00,
2013-05-17 00:52:00,63.0,60.0,-100.00,South,180,4.0,7.0,88,0.00,,,-99.99,,2013-05-17 05:52:00,
2013-05-17 01:02:00,63.0,60.0,-100.00,South,180,4.0,7.0,88,0.00,,,-99.99,,2013-05-17 06:02:00,
2013-05-17 01:11:00,63.0,60.0,-100.00,South,185,4.0,9.0,88,0.00,,,-99.99,,2013-05-17 06:11:00,
2013-05-17 01:21:00,63.0,60.0,-100.00,South,180,4.0,9.0,88,0.00,,,-99.99,,2013-05-17 06:21:00,
2013-05-17 01:32:00,63.0,60.0,-100.00,SSW,205,4.0,9.0,89,0.00,,,-99.99,,2013-05-17 06:32:00,
2013-05-17 01:42:00,63.0,60.0,-100.00,SSE,155,4.0,9.0,89,0.00,,,-99.99,,2013-05-17 06:42:00,
2013-05-17 01:51:00,63.0,60.0,-100.00,South,185,4.0,6.0,89,0.00,,,-99.99,,2013-05-17 06:51:00,
2013-05-17 02:02:00,63.0,60.0,-100.00,South,185,4.0,6.0,89,0.00,,,-99.99,,2013-05-17 07:02:00,
2013-05-17 02:11:00,63.0,60.0,-100.00,South,185,5.0,8.0,89,0.00,,,-99.99,,2013-05-17 07:11:00,
2013-05-17 02:21:00,63.0,60.0,-100.00,South,190,5.0,9.0,89,0.00,,,-99.99,,2013-05-17 07:21:00,
2013-05-17 02:32:00,63.0,60.0,-100.00,South,190,4.0,9.0,89,0.00,,,-99.99,,2013-05-17 07:32:00,
2013-05-17 02:43:00,63.0,60.0,-100.00,South,190,4.0,9.0,89,0.00,,,-99.99,,2013-05-17 07:43:00,
2013-05-17 02:53:00,62.0,59.0,-100.00,South,190,4.0,7.0,89,0.00,,,-99.99,,2013-05-17 07:53:00,
2013-05-17 03:02:00,62.0,59.0,-100.00,South,190,4.0,7.0,89,0.00,,,-99.99,,2013-05-17 08:02:00,
2013-05-17 03:12:00,62.0,59.0,-100.00,South,170,4.0,9.0,89,0.00,,,-99.99,,2013-05-17 08:12:00,
2013-05-17 03:22:00,62.0,59.0,-100.00,SSW,195,4.0,7.0,89,0.00,,,-99.99,,2013-05-17 08:22:00,
2013-05-17 03:33:00,62.0,59.0,-100.00,SSE,165,4.0,9.0,89,0.00,,,-99.99,,2013-05-17 08:33:00,
2013-05-17 03:42:00,62.0,59.0,-100.00,SSE,165,4.0,9.0,89,0.00,,,-99.99,,2013-05-17 08:42:00,
2013-05-17 03:51:00,62.0,58.0,-100.00,SSW,200,4.0,8.0,89,0.00,,,-99.99,,2013-05-17 08:51:00,
2013-05-17 04:02:00,62.0,58.0,-100.00,SSW,200,4.0,8.0,89,0.00,,,-99.99,,2013-05-17 09:02:00,
2013-05-17 04:12:00,61.0,58.0,-100.00,South,185,4.0,9.0,89,0.00,,,-99.99,,2013-05-17 09:12:00,
2013-05-17 04:22:00,61.0,58.0,-100.00,South,170,4.0,11.0,89,0.00,,,-99.99,,2013-05-17 09:22:00,
2013-05-17 04:33:00,61.0,58.0,-100.00,South,185,3.0,6.0,89,0.00,,,-99.99,,2013-05-17 09:33:00,
2013-05-17 04:42:00,61.0,58.0,-100.00,South,185,3.0,6.0,89,0.00,,,-99.99,,2013-05-17 09:42:00,
2013-05-17 04:53:00,60.0,57.0,-100.00,South,170,3.0,4.0,90,0.00,,,-99.99,,2013-05-17 09:53:00,
2013-05-17 05:03:00,60.0,57.0,-100.00,South,170,3.0,4.0,90,0.00,,,-99.99,,2013-05-17 10:03:00,
2013-05-17 05:12:00,59.0,56.0,-100.00,SSE,155,2.0,4.0,90,0.00,,,-99.99,,2013-05-17 10:12:00,
2013-05-17 05:23:00,59.0,56.0,-100.00,SSE,160,2.0,4.0,90,0.00,,,-99.99,,2013-05-17 10:23:00,
2013-05-17 05:33:00,59.0,56.0,-100.00,SSE,150,3.0,5.0,90,0.00,,,-99.99,,2013-05-17 10:33:00,
2013-05-17 05:42:00,59.0,56.0,-100.00,SSE,150,3.0,5.0,90,0.00,,,-99.99,,2013-05-17 10:42:00,
2013-05-17 05:53:00,59.0,56.0,-100.00,SE,135,2.0,4.0,90,0.00,,,-99.99,,2013-05-17 10:53:00,
2013-05-17 06:02:00,59.0,56.0,-100.00,SE,135,2.0,4.0,90,0.00,,,-99.99,,2013-05-17 11:02:00,
2013-05-17 06:12:00,58.0,56.0,-100.00,ESE,120,1.0,2.0,90,0.00,,,-99.99,,2013-05-17 11:12:00,
2013-05-17 06:22:00,59.0,56.0,-100.00,SE,130,2.0,4.0,90,0.00,,,-99.99,,2013-05-17 11:22:00,
2013-05-17 06:34:00,58.0,56.0,-100.00,SE,135,2.0,4.0,90,0.00,,,-99.99,,2013-05-17 11:34:00,
2013-05-17 06:42:00,58.0,56.0,-100.00,SE,135,2.0,4.0,90,0.00,,,-99.99,,2013-05-17 11:42:00,
2013-05-17 06:52:00,60.0,57.0,-100.00,SE,125,2.0,4.0,90,0.00,,,-99.99,,2013-05-17 11:52:00,
2013-05-17 07:03:00,60.0,57.0,-100.00,SE,125,2.0,4.0,90,0.00,,,-99.99,,2013-05-17 12:03:00,
2013-05-17 07:12:00,60.0,58.0,-100.00,SE,135,1.0,4.0,90,0.00,,,-99.99,,2013-05-17 12:12:00,
2013-05-17 07:23:00,61.0,58.0,-100.00,SSE,155,2.0,4.0,90,0.00,,,-99.99,,2013-05-17 12:23:00,
2013-05-17 07:32:00,61.0,59.0,-100.00,SE,125,3.0,6.0,90,0.00,,,-99.99,,2013-05-17 12:32:00,
2013-05-17 07:43:00,61.0,59.0,-100.00,SE,125,3.0,6.0,90,0.00,,,-99.99,,2013-05-17 12:43:00,
2013-05-17 07:53:00,62.0,60.0,-100.00,SE,145,5.0,9.0,90,0.00,,,-99.99,,2013-05-17 12:53:00,
2013-05-17 08:03:00,62.0,60.0,-100.00,SE,145,5.0,9.0,90,0.00,,,-99.99,,2013-05-17 13:03:00,
2013-05-17 08:12:00,63.0,61.0,-100.00,ESE,120,3.0,9.0,90,0.00,,,-99.99,,2013-05-17 13:12:00,
2013-05-17 08:23:00,64.0,61.0,-100.00,South,190,4.0,9.0,90,0.00,,,-99.99,,2013-05-17 13:23:00,
2013-05-17 08:33:00,66.0,63.0,-100.00,SSE,155,6.0,12.0,90,0.00,,,-99.99,,2013-05-17 13:33:00,
2013-05-17 08:42:00,66.0,63.0,-100.00,SSE,155,6.0,12.0,90,0.00,,,-99.99,,2013-05-17 13:42:00,
2013-05-17 08:52:00,68.0,62.0,-100.00,SSE,160,6.0,12.0,81,0.00,,,-99.99,,2013-05-17 13:52:00,
2013-05-17 09:02:00,68.0,62.0,-100.00,SSE,160,6.0,12.0,81,0.00,,,-99.99,,2013-05-17 14:02:00,
2013-05-17 09:13:00,68.0,60.0,-100.00,South,170,6.0,11.0,74,0.00,,,-99.99,,2013-05-17 14:13:00,
2013-05-17 09:22:00,69.0,59.0,-100.00,South,170,6.0,12.0,70,0.00,,,-99.99,,2013-05-17 14:22:00,
2013-05-17 09:34:00,70.0,59.0,-100.00,SSE,150,6.0,11.0,66,0.00,,,-99.99,,2013-05-17 14:34:00,
2013-05-17 09:43:00,70.0,59.0,-100.00,SSE,150,6.0,11.0,66,0.00,,,-99.99,,2013-05-17 14:43:00,
2013-05-17 09:53:00,71.0,58.0,-100.00,SE,145,6.0,11.0,65,0.00,,,-99.99,,2013-05-17 14:53:00,
2013-05-17 10:03:00,71.0,58.0,-100.00,SE,145,6.0,11.0,65,0.00,,,-99.99,,2013-05-17 15:03:00,
2013-05-17 10:14:00,71.0,58.0,-100.00,SE,140,3.0,11.0,63,0.00,,,-99.99,,2013-05-17 15:14:00,
2013-05-17 10:25:00,72.0,58.0,-100.00,SSW,200,5.0,11.0,60,0.00,,,-99.99,,2013-05-17 15:25:00,
2013-05-17 10:37:00,72.0,57.0,-100.00,SSE,165,7.0,10.0,58,0.00,,,-99.99,,2013-05-17 15:37:00,
2013-05-17 10:47:00,74.0,58.0,-100.00,SE,145,3.0,10.0,57,0.00,,,-99.99,,2013-05-17 15:47:00,
2013-05-17 10:56:00,74.0,56.0,-100.00,SSE,150,7.0,11.0,54,0.00,,,-99.99,,2013-05-17 15:56:00,
2013-05-17 11:07:00,74.0,57.0,-100.00,SSW,200,6.0,11.0,55,0.00,,,-99.99,,2013-05-17 16:07:00,
2013-05-17 11:13:00,74.0,56.0,-100.00,SSW,205,6.0,10.0,53,0.00,,,-99.99,,2013-05-17 16:13:00,
2013-05-17 11:26:00,74.0,56.0,-100.00,SE,140,3.0,11.0,53,0.00,,,-99.99,,2013-05-17 16:26:00,
2013-05-17 11:37:00,76.0,56.0,-100.00,SE,145,5.0,9.0,50,0.00,,,-99.99,,2013-05-17 16:37:00,
2013-05-17 11:49:00,76.0,56.0,-100.00,SSW,200,4.0,10.0,50,0.00,,,-99.99,,2013-05-17 16:49:00,
2013-05-17 11:56:00,75.0,55.0,-100.00,SE,135,4.0,10.0,49,0.00,,,-99.99,,2013-05-17 16:56:00,
2013-05-17 12:08:00,75.0,55.0,-100.00,SSW,210,6.0,10.0,49,0.00,,,-99.99,,2013-05-17 17:08:00,
2013-05-17 12:18:00,75.0,55.0,-100.00,SSW,210,6.0,10.0,49,0.00,,,-99.99,,2013-05-17 17:18:00,
2013-05-17 12:30:00,76.0,56.0,-100.00,SSE,160,4.0,9.0,48,0.00,,,-99.99,,2013-05-17 17:30:00,
2013-05-17 12:40:00,77.0,-99.9,-100.00,SE,145,3.0,9.0,48,0.00,,,-99.99,,2013-05-17 17:40:00,
2013-05-17 12:49:00,77.0,56.0,-100.00,SE,145,3.0,9.0,48,0.00,,,-99.99,,2013-05-17 17:49:00,
2013-05-17 13:00:00,76.0,56.0,-100.00,ESE,120,6.0,10.0,49,0.00,,,-99.99,,2013-05-17 18:00:00,
2013-05-17 13:09:00,76.0,56.0,-100.00,ESE,120,6.0,10.0,49,0.00,,,-99.99,,2013-05-17 18:09:00,
2013-05-17 13:20:00,76.0,56.0,-100.00,ESE,115,8.0,13.0,50,0.00,,,-99.99,,2013-05-17 18:20:00,
2013-05-17 13:30:00,77.0,57.0,-100.00,ESE,115,5.0,9.0,49,0.00,,,-99.99,,2013-05-17 18:30:00,
2013-05-17 13:40:00,76.0,-99.9,-100.00,SE,125,6.0,12.0,51,0.00,,,-99.99,,2013-05-17 18:40:00,
2013-05-17 13:50:00,-999.0,-99.9,-100.00,SSE,150,4.0,9.0,51,0.00,,,-99.99,,2013-05-17 18:50:00,
2013-05-17 14:00:00,76.0,56.0,-100.00,SE,135,5.0,13.0,49,0.00,,,-99.99,,2013-05-17 19:00:00,
2013-05-17 14:10:00,76.0,56.0,-100.00,SSE,150,5.0,9.0,50,0.00,,,-99.99,,2013-05-17 19:10:00,
2013-05-17 14:20:00,77.0,56.0,-100.00,SE,125,6.0,9.0,48,0.00,,,-99.99,,2013-05-17 19:20:00,
2013-05-17 14:30:00,77.0,56.0,-100.00,SE,125,6.0,9.0,48,0.00,,,-99.99,,2013-05-17 19:30:00,
2013-05-17 14:40:00,76.0,55.0,-100.00,SE,125,3.0,9.0,48,0.00,,,-99.99,,2013-05-17 19:40:00,
2013-05-17 14:50:00,76.0,55.0,-100.00,SE,125,3.0,9.0,48,0.00,,,-99.99,,2013-05-17 19:50:00,
2013-05-17 15:00:00,76.0,-99.9,-100.00,SE,130,7.0,12.0,49,0.00,,,-99.99,,2013-05-17 20:00:00,
2013-05-17 15:09:00,76.0,55.0,-100.00,SSE,150,4.0,10.0,48,0.00,,,-99.99,,2013-05-17 20:09:00,
2013-05-17 15:20:00,77.0,56.0,-100.00,ESE,115,6.0,10.0,48,0.00,,,-99.99,,2013-05-17 20:20:00,
2013-05-17 15:30:00,77.0,56.0,-100.00,SE,135,2.0,12.0,48,0.00,,,-99.99,,2013-05-17 20:30:00,
2013-05-17 15:40:00,77.0,56.0,-100.00,SE,135,4.0,10.0,49,0.00,,,-99.99,,2013-05-17 20:40:00,
2013-05-17 15:50:00,76.0,56.0,-100.00,SSE,150,6.0,11.0,49,0.00,,,-99.99,,2013-05-17 20:50:00,
2013-05-17 15:58:00,80.0,58.0,-100.00,ESE,115,6.0,11.0,46,0.00,,,-99.99,,2013-05-17 20:58:00,
2013-05-17 16:07:00,80.0,58.0,-100.00,ESE,115,6.0,11.0,46,0.00,,,-99.99,,2013-05-17 21:07:00,
2013-05-17 16:17:00,76.0,56.0,-100.00,ESE,115,6.0,12.0,50,0.00,,,-99.99,,2013-05-17 21:17:00,
2013-05-17 16:26:00,77.0,56.0,-100.00,SE,135,4.0,10.0,47,0.00,,,-99.99,,2013-05-17 21:26:00,
2013-05-17 16:39:00,76.0,55.0,-100.00,ESE,115,6.0,12.0,48,0.00,,,-99.99,,2013-05-17 21:39:00,
2013-05-17 16:49:00,76.0,56.0,-100.00,SE,140,6.0,9.0,50,0.00,,,-99.99,,2013-05-17 21:49:00,
2013-05-17 16:57:00,76.0,56.0,-100.00,South,190,3.0,10.0,49,0.00,,,-99.99,,2013-05-17 21:57:00,
2013-05-17 17:07:00,76.0,56.0,-100.00,South,190,3.0,10.0,49,0.00,,,-99.99,,2013-05-17 22:07:00,
2013-05-17 17:17:00,77.0,56.0,-100.00,SSE,150,5.0,11.0,49,0.00,,,-99.99,,2013-05-17 22:17:00,
2013-05-17 17:28:00,76.0,56.0,-100.00,SE,125,6.0,13.0,50,0.00,,,-99.99,,2013-05-17 22:28:00,
2013-05-17 17:38:00,76.0,55.0,-100.00,SE,125,4.0,8.0,48,0.00,,,-99.99,,2013-05-17 22:38:00,
2013-05-17 17:47:00,78.0,57.0,-100.00,SE,130,10.0,15.0,48,0.00,,,-99.99,,2013-05-17 22:47:00,
2013-05-17 17:54:00,76.0,56.0,-100.00,SE,125,6.0,11.0,50,0.00,,,-99.99,,2013-05-17 22:54:00,
2013-05-17 18:04:00,76.0,56.0,-100.00,SE,125,6.0,11.0,50,0.00,,,-99.99,,2013-05-17 23:04:00,
2013-05-17 18:13:00,76.0,56.0,-100.00,SE,135,6.0,11.0,49,0.00,,,-99.99,,2013-05-17 23:13:00,
2013-05-17 18:23:00,77.0,56.0,-100.00,SSE,155,6.0,12.0,47,0.00,,,-99.99,,2013-05-17 23:23:00,
2013-05-17 18:37:00,78.0,56.0,-100.00,ESE,120,5.0,10.0,47,0.00,,,-99.99,,2013-05-17 23:37:00,
2013-05-17 18:47:00,77.0,56.0,-100.00,ESE,105,4.0,9.0,47,0.00,,,-99.99,,2013-05-17 23:47:00,
2013-05-17 18:54:00,78.0,55.0,-100.00,SE,145,4.0,9.0,45,0.00,,,-99.99,,2013-05-17 23:54:00,
2013-05-17 19:02:00,78.0,55.0,-100.00,SE,145,4.0,9.0,45,0.00,,,-99.99,,2013-05-18 00:02:00,
2013-05-17 19:14:00,77.0,54.0,-100.00,South,185,5.0,9.0,45,0.00,,,-99.99,,2013-05-18 00:14:00,
2013-05-17 19:21:00,77.0,54.0,-100.00,SSW,200,4.0,7.0,45,0.00,,,-99.99,,2013-05-18 00:21:00,
2013-05-17 19:33:00,76.0,54.0,-100.00,South,190,4.0,7.0,46,0.00,,,-99.99,,2013-05-18 00:33:00,
2013-05-17 19:44:00,76.0,54.0,-100.00,South,190,4.0,7.0,46,0.00,,,-99.99,,2013-05-18 00:44:00,
2013-05-17 19:54:00,76.0,54.0,-100.00,SSE,160,4.0,7.0,47,0.00,,,-99.99,,2013-05-18 00:54:00,
2013-05-17 20:02:00,74.0,54.0,-100.00,SE,140,4.0,7.0,49,0.00,,,-99.99,,2013-05-18 01:02:00,
2013-05-17 20:13:00,74.0,55.0,-100.00,SE,145,3.0,7.0,51,0.00,,,-99.99,,2013-05-18 01:13:00,
2013-05-17 20:24:00,72.0,55.0,-100.00,SE,135,2.0,5.0,53,0.00,,,-99.99,,2013-05-18 01:24:00,
2013-05-17 20:32:00,71.0,55.0,-100.00,ESE,120,2.0,4.0,56,0.00,,,-99.99,,2013-05-18 01:32:00,
2013-05-17 20:42:00,71.0,55.0,-100.00,ESE,120,2.0,4.0,56,0.00,,,-99.99,,2013-05-18 01:42:00,
2013-05-17 20:52:00,70.0,55.0,-100.00,ESE,120,2.0,4.0,59,0.00,,,-99.99,,2013-05-18 01:52:00,
2013-05-17 21:02:00,68.0,55.0,-100.00,ESE,115,3.0,4.0,63,0.00,,,-99.99,,2013-05-18 02:02:00,
2013-05-17 21:12:00,68.0,56.0,-100.00,ESE,110,3.0,4.0,65,0.00,,,-99.99,,2013-05-18 02:12:00,
2013-05-17 21:22:00,68.0,56.0,-100.00,ESE,110,3.0,4.0,65,0.00,,,-99.99,,2013-05-18 02:22:00,
2013-05-17 21:31:00,67.0,57.0,-100.00,SE,125,2.0,4.0,69,0.00,,,-99.99,,2013-05-18 02:31:00,
2013-05-17 21:42:00,67.0,57.0,-100.00,SE,135,2.0,4.0,71,0.00,,,-99.99,,2013-05-18 02:42:00,
2013-05-17 21:53:00,66.0,57.0,-100.00,SE,135,3.0,6.0,73,0.00,,,-99.99,,2013-05-18 02:53:00,
2013-05-17 22:02:00,65.0,58.0,-100.00,SE,145,2.0,4.0,76,0.00,,,-99.99,,2013-05-18 03:02:00,
2013-05-17 22:12:00,64.0,58.0,-100.00,SE,130,3.0,5.0,78,0.00,,,-99.99,,2013-05-18 03:12:00,
2013-05-17 22:22:00,64.0,58.0,-100.00,SE,130,3.0,5.0,78,0.00,,,-99.99,,2013-05-18 03:22:00,
2013-05-17 22:32:00,64.0,58.0,-100.00,SE,140,3.0,6.0,81,0.00,,,-99.99,,2013-05-18 03:32:00,
2013-05-17 22:43:00,64.0,59.0,-100.00,SE,135,4.0,5.0,81,0.00,,,-99.99,,2013-05-18 03:43:00,
2013-05-17 22:53:00,64.0,58.0,-100.00,SE,140,3.0,6.0,81,0.00,,,-99.99,,2013-05-18 03:53:00,
2013-05-17 23:02:00,64.0,58.0,-100.00,SE,140,3.0,6.0,81,0.00,,,-99.99,,2013-05-18 04:02:00,
2013-05-17 23:12:00,63.0,58.0,-100.00,SE,145,2.0,4.0,83,0.00,,,-99.99,,2013-05-18 04:12:00,
2013-05-17 23:23:00,63.0,58.0,-100.00,SE,145,2.0,4.0,83,0.00,,,-99.99,,2013-05-18 04:23:00,
2013-05-17 23:33:00,62.0,58.0,-100.00,SE,140,2.0,4.0,85,0.00,,,-99.99,,2013-05-18 04:33:00,
2013-05-17 23:42:00,62.0,58.0,-100.00,SE,140,2.0,4.0,85,0.00,,,-99.99,,2013-05-18 04:42:00,
2013-05-17 23:52:00,62.0,58.0,-100.00,SE,135,2.0,4.0,86,0.00,,,-99.99,,2013-05-18 04:52:00,